This is the latest recevied weather packets stored in our database for station/object KC3UTO. If no packets are shown the sender has not sent any weather packets the latest 10 day(s).
| Time | Temp. | Humidity | Pressure | Rain* | Wind** | Luminosity | Snow |
|---|---|---|---|---|---|---|---|
| 1777581919 | 16.67° C | 50% | 1006.7 hPa | 0 mm | - | 230 W/m² | - |
| 1777581614 | 16.67° C | 50% | 1006.7 hPa | 0 mm | - | 239 W/m² | - |
| 1777581309 | 16.67° C | 51% | 1006.5 hPa | 0 mm | - | 255 W/m² | - |
| 1777581004 | 16.67° C | 51% | 1006.6 hPa | 0 mm | - | 255 W/m² | - |
| 1777580703 | 16.67° C | 52% | 1006.5 hPa | 0 mm | - | 264 W/m² | - |
| 1777580399 | 16.67° C | 51% | 1006.7 hPa | 0 mm | - | 221 W/m² | - |
| 1777580095 | 16.67° C | 52% | 1006.4 hPa | 0 mm | - | 245 W/m² | - |
| 1777579792 | 16.67° C | 52% | 1006.6 hPa | 0 mm | - | 261 W/m² | - |
| 1777579490 | 16.67° C | 52% | 1006.7 hPa | 0 mm | - | 281 W/m² | - |
| 1777579185 | 16.67° C | 52% | 1006.7 hPa | 0 mm | - | 296 W/m² | - |
| 1777578880 | 16.67° C | 57% | 1006.7 hPa | 0 mm | - | 272 W/m² | - |
| 1777578577 | 16.67° C | 55% | 1006.5 hPa | 0 mm | - | 220 W/m² | - |
| 1777578271 | 16.11° C | 57% | 1006.5 hPa | 0 mm | - | 211 W/m² | - |
| 1777577967 | 16.11° C | 57% | 1006.4 hPa | 0 mm | - | 182 W/m² | - |
| 1777577662 | 16.67° C | 58% | 1006.7 hPa | 0 mm | - | 175 W/m² | - |
| 1777577360 | 16.11° C | 59% | 1006.7 hPa | 0 mm | - | 271 W/m² | - |
| 1777577056 | 16.11° C | 58% | 1006.5 hPa | 0 mm | - | 301 W/m² | - |
| 1777576753 | 15.56° C | 60% | 1006.6 hPa | 0 mm | - | 437 W/m² | - |
| 1777576452 | 15.56° C | 58% | 1006.7 hPa | 0 mm | - | 307 W/m² | - |
| 1777576149 | 15.56° C | 58% | 1006.7 hPa | 0 mm | - | 241 W/m² | - |
| 1777575844 | 16.11° C | 60% | 1006.9 hPa | 0 mm | - | 398 W/m² | - |
| 1777575541 | 15.56° C | 60% | 1006.7 hPa | 0 mm | - | 358 W/m² | - |
| 1777575236 | 15.56° C | 60% | 1006.8 hPa | 0 mm | - | 335 W/m² | - |
| 1777574933 | 15° C | 61% | 1006.8 hPa | 0 mm | - | 367 W/m² | - |
| 1777574629 | 15° C | 62% | 1007 hPa | 0 mm | - | 181 W/m² | - |
* Rain latest hour (hover to see other rain measurements)
** Current wind speed in m/s (hover to see current wind gust speed)